CAPE
0 0 0 0 0 0 0 0 0 0 0 0 0 0 0 0 0 0 0 0 0 0 0 0 0 0 0 0 0 0 0 0 0 2 2 1 3 0 0 0 0 0 0 0
0 0 0 0 0 0 0 0 0 0 0 0 0 0 0 0 0 0 0 0 0 0 0 0 0 0 0 0 0 0 0 0 1 3 0 2 2 1 0 0 0 0 1 1
0 0 0 0 0 0 0 0 0 0 0 0 0 0 0 0 0 0 0 0 0 0 0 0 0 0 0 0 0 0 0 0 0 0 3 0 1 3 0 1 0 7 0 3
0 0 0 0 0 0 0 0 0 0 0 0 0 0 0 0 0 0 0 0 0 0 0 0 0 0 0 0 0 0 0 0 1 0 1 1 1 1 1 1 0 1 0 0
0 0 0 0 0 0 0 0 0 0 0 0 0 0 0 0 0 0 0 0 0 0 0 0 0 0 0 0 0 0 0 0 0 0 0 0 0 1 2 2 8 1 0 0
0 0 0 0 0 0 0 0 0 0 0 0 0 0 0 0 0 0 0 0 0 0 0 0 0 0 0 0 0 0 0 0 0 0 0 1 0 0 1 2 1 1 0 0
0 0 0 0 0 0 0 0 0 0 0 0 0 0 0 0 0 0 0 0 0 0 0 0 0 0 0 0 0 0 0 0 0 0 0 0 0 0 0 2 2 0 0 0
0 0 0 0 0 0 0 0 0 0 0 0 0 0 0 0 0 0 0 0 0 0 0 0 0 0 0 0 0 0 0 0 0 0 0 0 0 0 0 3 1 0 1 2
0 0 0 0 0 0 0 0 0 0 0 0 0 0 0 0 0 0 0 0 0 0 0 0 0 0 0 0 0 0 0 0 0 0 0 0 0 0 1 2 2 2 3 4
0 0 0 0 0 0 0 0 0 0 0 0 0 0 0 0 0 0 0 0 0 0 0 0 0 0 0 0 0 0 0 0 0 0 0 0 0 0 0 1 2 2 3 3
0 0 0 0 0 0 0 0 0 0 0 0 0 0 0 0 0 0 0 0 0 0 0 0 0 0 0 0 0 0 0 0 0 0 0 0 0 0 0 0 1 2 1 2
0 0 0 0 0 0 0 0 0 0 0 0 0 0 0 0 0 0 0 0 0 0 0 0 0 0 0 0 0 0 0 0 0 0 0 0 0 0 0 0 0 1 1 1
0 0 0 0 0 0 0 0 0 0 0 0 0 0 0 0 0 0 0 0 0 0 0 0 0 0 0 0 0 0 0 0 0 0 0 0 0 0 0 0 1 1 0 1
0 0 0 0 0 0 0 0 0 0 0 0 0 0 0 0 0 0 0 0 0 0 0 0 0 0 0 0 0 0 0 0 0 0 0 0 0 0 0 0 0 0 0 0
0 0 0 0 0 0 0 0 0 0 0 0 0 0 0 0 0 0 0 0 0 0 0 0 0 0 0 0 0 0 0 0 0 0 0 0 0 0 0 0 0 0 0 0
0 0 0 0 0 0 0 0 0 0 0 0 0 0 0 0 0 0 0 0 0 0 0 0 0 0 0 0 0 0 0 0 0 0 0 0 0 0 0 0 0 0 0 0
0 0 0 0 0 0 0 0 0 0 0 0 0 0 0 0 0 0 0 0 0 0 0 0 0 0 0 0 0 0 0 0 0 0 0 0 0 0 0 0 0 0 0 0
0 0 0 0 0 0 0 0 0 0 0 0 0 0 0 0 0 0 0 0 0 0 0 0 0 0 0 0 0 0 0 0 0 0 0 0 0 0 0 0 0 0 0 0
0 0 0 0 0 0 0 0 0 0 0 0 0 0 0 0 0 0 0 0 0 0 0 0 0 0 0 0 0 0 0 0 0 0 0 0 0 0 0 0 0 0 0 0
0 0 0 0 0 0 0 0 0 0 0 0 0 0 0 0 0 0 0 0 0 0 0 0 0 0 0 0 0 0 0 0 0 0 0 0 0 0 0 0 0 0 0 0
0 2 0 0 0 0 0 0 0 0 0 0 0 0 0 0 0 0 0 0 0 0 0 0 0 0 0 0 0 0 0 0 0 0 0 0 0 0 0 0 0 0 0 0
0 0 0 0 0 0 0 0 0 0 0 0 0 0 0 0 0 0 0 0 0 0 0 0 0 0 0 0 0 0 0 0 0 0 0 0 0 0 0 0 0 0 0 0
0 0 0 0 0 0 0 0 0 0 0 0 0 0 0 0 0 0 0 0 0 0 0 0 0 0 0 0 0 0 0 0 0 0 0 0 0 0 0 0 0 0 0 0
0 0 0 0 0 0 0 0 0 0 0 0 0 0 0 0 0 0 0 0 0 0 0 0 0 0 0 0 0 0 0 0 0 0 0 0 0 0 0 0 0 0 0 0
0 0 0 0 0 0 0 0 0 0 0 0 0 0 0 0 0 0 0 0 0 0 0 0 0 0 0 0 0 0 0 0 0 0 0 0 0 0 0 0 0 0 0 0
0 0 0 0 0 0 0 0 0 0 0 0 0 0 0 0 0 0 0 0 0 0 0 0 0 0 0 0 0 0 0 0 0 0 0 0 0 0 0 0 0 0 0 0
CIN
0 0 0 0 0 0 0 0 0 0 0 0 0 0 0 0 0 0 0 0 0 0 0 0 0 0 0 0 0 0 0 0 0 0 0 0 -1 0 0 0 0 0 0 0
0 0 0 0 0 0 0 0 0 0 0 0 0 0 0 0 0 0 0 0 0 0 0 0 0 0 0 0 0 0 0 0 0 0 0 0 0 -1 0 0 0 0 -68 -60
0 0 0 0 0 0 0 0 0 0 0 0 0 0 0 0 0 0 0 0 0 0 0 0 0 0 0 0 0 0 0 0 0 -1 0 0 0 0 0 0 0 -12 -13 -136
0 0 0 0 0 0 0 0 0 0 0 0 0 0 0 0 0 0 0 0 0 0 0 0 0 0 0 0 0 0 0 0 0 0 -1 0 0 0 0 0 0 0 0 0
0 0 0 0 0 0 0 0 0 0 0 0 0 0 0 0 0 0 0 0 0 0 0 0 0 0 0 0 0 0 0 0 0 0 0 0 0 0 0 0 0 0 0 0
0 0 0 0 0 0 0 0 0 0 0 0 0 0 0 0 0 0 0 0 0 0 0 0 0 0 0 0 0 0 0 0 0 0 0 0 0 0 0 0 0 0 0 0
0 0 0 0 0 0 0 0 0 0 0 0 0 0 0 0 0 0 0 0 0 0 0 0 0 0 0 0 0 0 0 0 0 0 0 0 0 0 0 0 0 0 0 0
0 0 0 0 0 0 0 0 0 0 0 0 0 0 0 0 0 0 0 0 0 0 0 0 0 0 0 0 0 0 0 0 0 0 0 0 0 0 0 0 0 0 0 0
0 0 0 0 0 0 0 0 0 0 0 0 0 0 0 0 0 0 0 0 0 0 0 0 0 0 0 0 0 0 0 0 0 0 0 0 0 0 0 0 0 0 0 0
0 0 0 0 0 0 0 0 0 0 0 0 0 0 0 0 0 0 0 0 0 0 0 0 0 0 0 0 0 0 0 0 0 0 0 0 0 0 0 0 0 0 0 0
0 0 0 0 0 0 0 0 0 0 0 0 0 0 0 0 0 0 0 0 0 0 0 0 0 0 0 0 0 0 0 0 0 0 0 0 0 0 0 0 0 0 0 0
0 0 0 0 0 0 0 0 0 0 0 0 0 0 0 0 0 0 0 0 0 0 0 0 0 0 0 0 0 0 0 0 0 0 0 0 0 0 0 0 0 0 0 0
0 0 0 0 0 0 0 0 0 0 0 0 0 0 0 0 0 0 0 0 0 0 0 0 0 0 0 0 0 0 0 0 0 0 0 0 0 0 0 0 0 0 0 0
0 0 0 0 0 0 0 0 0 0 0 0 0 0 0 0 0 0 0 0 0 0 0 0 0 0 0 0 0 0 0 0 0 0 0 0 0 0 0 0 0 0 0 0
0 0 0 0 0 0 0 0 0 0 0 0 0 0 0 0 0 0 0 0 0 0 0 0 0 0 0 0 0 0 0 0 0 0 0 0 0 0 0 0 0 0 0 0
0 0 0 0 0 0 0 0 0 0 0 0 0 0 0 0 0 0 0 0 0 0 0 0 0 0 0 0 0 0 0 0 0 0 0 0 0 0 0 0 0 0 0 0
0 0 0 0 0 0 0 0 0 0 0 0 0 0 0 0 0 0 0 0 0 0 0 0 0 0 0 0 0 0 0 0 0 0 0 0 0 0 0 0 0 0 0 0
0 0 0 0 0 0 0 0 0 0 0 0 0 0 0 0 0 0 0 0 0 0 0 0 0 0 0 0 0 0 0 0 0 0 0 0 0 0 0 0 0 0 0 0
0 0 0 0 0 0 0 0 0 0 0 0 0 0 0 0 0 0 0 0 0 0 0 0 0 0 0 0 0 0 0 0 0 0 0 0 0 0 0 0 0 0 0 0
0 0 0 0 0 0 0 0 0 0 0 0 0 0 0 0 0 0 0 0 0 0 0 0 0 0 0 0 0 0 0 0 0 0 0 0 0 0 0 0 0 0 0 0
0 0 0 0 0 0 0 0 0 0 0 0 0 0 0 0 0 0 0 0 0 0 0 0 0 0 0 0 0 0 0 0 0 0 0 0 0 0 0 0 0 0 0 0
0 0 0 0 0 0 0 0 0 0 0 0 0 0 0 0 0 0 0 0 0 0 0 0 0 0 0 0 0 0 0 0 0 0 0 0 0 0 0 0 0 0 0 0
0 0 0 0 0 0 0 0 0 0 0 0 0 0 0 0 0 0 0 0 0 0 0 0 0 0 0 0 0 0 0 0 0 0 0 0 0 0 0 0 0 0 0 0
0 0 0 0 0 0 0 0 0 0 0 0 0 0 0 0 0 0 0 0 0 0 0 0 0 0 0 0 0 0 0 0 0 0 0 0 0 0 0 0 0 0 0 0
0 0 0 0 0 0 0 0 0 0 0 0 0 0 0 0 0 0 0 0 0 0 0 0 0 0 0 0 0 0 0 0 0 0 0 0 0 0 0 0 0 0 0 0
0 0 0 0 0 0 0 0 0 0 0 0 0 0 0 0 0 0 0 0 0 0 0 0 0 0 0 0 0 0 0 0 0 0 0 0 0 0 0 0 0 0 0 0
Wind_Speed
18 20 19 17 16 19 22 24 27 28 30 32 31 33 36 31 26 23 20 19 25 30 31 33 34 34 34 34 35 37 37 37 36 36 36 36 36 38 40 41 43 43 44 42
20 21 20 17 17 19 22 26 29 30 25 35 37 37 34 26 22 19 17 20 27 32 32 32 32 31 31 33 34 34 34 35 34 33 36 36 37 37 39 40 42 41 41 41
19 20 16 19 21 22 22 24 27 30 34 31 39 35 28 25 23 21 19 21 27 29 30 30 31 30 30 33 33 35 34 33 33 33 34 35 36 36 35 34 33 30 28 30
20 19 19 21 20 18 25 23 25 31 37 38 33 37 32 24 22 19 19 21 27 29 29 30 30 30 30 31 32 32 32 32 32 32 31 31 35 36 34 34 30 26 25 28
22 21 20 20 20 15 21 25 29 29 30 31 28 32 29 23 23 20 19 22 27 30 32 28 26 27 27 29 29 29 29 30 31 30 27 24 32 33 33 33 29 21 24 25
24 21 20 19 17 17 22 26 26 24 26 31 26 30 29 24 23 23 23 24 30 30 23 20 22 23 24 24 27 27 25 30 31 30 28 24 29 30 31 31 28 23 24 25
25 21 19 15 17 17 20 24 30 28 32 32 25 26 21 17 16 20 19 24 26 25 20 19 21 21 20 24 27 21 22 26 31 30 29 27 26 28 28 27 28 26 27 27
24 22 15 13 14 17 19 19 24 32 35 35 22 24 22 18 17 16 16 20 22 22 20 18 17 16 18 21 22 18 17 16 28 29 27 25 24 25 25 24 25 25 26 25
20 19 13 15 15 17 17 20 19 25 27 29 21 21 18 16 15 12 16 17 19 19 19 17 15 15 16 16 17 16 16 14 2 19 24 22 22 22 23 21 20 22 23 23
19 21 15 16 15 16 16 15 23 24 30 31 25 23 19 21 21 16 12 13 13 13 15 17 17 15 10 10 11 13 9 6 6 7 16 18 18 19 20 19 18 20 20 21
18 18 17 17 13 13 15 17 18 21 21 25 28 22 15 17 17 15 14 15 14 14 13 17 18 13 9 8 9 10 9 5 7 11 15 15 15 16 18 18 18 19 20 19
18 19 19 18 16 14 14 14 15 21 22 18 20 14 12 12 13 12 11 13 12 13 14 16 17 10 11 9 9 9 11 10 9 10 12 14 15 16 16 16 18 20 19 15
19 19 21 17 16 14 13 12 13 16 17 15 17 14 12 7 8 12 11 14 13 13 11 12 11 10 10 11 11 12 13 15 14 14 15 15 15 16 16 17 17 16 13 11
21 21 17 19 20 17 14 12 8 9 14 16 8 4 7 5 10 14 15 17 15 14 13 12 12 13 12 14 15 15 17 17 18 19 16 15 15 16 15 13 12 11 10 8
20 24 21 30 27 2 2 4 3 3 5 10 12 5 9 10 2 15 18 19 18 18 18 17 16 15 16 17 18 20 18 18 19 21 18 16 13 11 9 6 6 5 4 4
19 23 23 28 21 15 7 3 5 6 5 6 7 8 7 16 17 18 19 21 22 21 23 21 20 20 20 20 20 21 22 22 23 25 24 19 15 9 6 5 4 4 4 3
21 22 22 24 21 27 12 13 13 13 13 15 17 17 16 16 16 17 19 21 23 24 24 25 26 24 24 23 24 25 24 24 24 24 24 24 25 23 19 12 5 4 5 6
21 19 20 25 24 13 14 13 14 15 15 17 14 14 16 15 15 16 19 22 24 25 25 25 25 26 26 25 26 26 24 25 26 28 28 27 26 24 21 18 12 6 4 3
17 17 21 20 18 23 12 14 16 17 17 17 17 16 16 16 14 16 20 21 23 24 25 25 25 26 26 27 27 28 29 29 30 30 30 28 27 29 26 23 21 13 8 6
15 16 18 17 16 11 14 11 16 17 17 13 18 17 18 18 18 17 21 22 23 23 24 25 26 25 25 25 25 26 27 28 29 28 27 27 27 27 27 26 23 20 10 10
20 17 20 19 18 23 21 14 12 13 15 14 17 18 18 17 16 16 20 20 21 22 23 24 24 24 23 23 24 24 25 25 25 25 24 24 23 24 24 24 22 22 24 24
21 17 19 15 16 17 12 10 14 18 17 16 16 19 19 18 15 15 17 18 19 20 21 21 21 20 20 20 21 21 22 23 23 23 24 23 22 22 23 24 23 24 23 23
22 17 21 19 20 22 19 29 26 25 24 24 23 20 19 18 15 13 14 16 17 17 18 18 18 18 18 18 19 19 19 20 21 21 21 21 21 21 21 21 20 20 19 18
22 16 25 27 24 31 32 33 33 30 28 27 26 27 14 17 14 14 13 13 14 15 15 15 15 14 15 16 16 16 18 18 18 18 17 17 17 17 16 16 15 14 14 13
28 19 28 33 38 37 32 30 30 29 27 29 27 20 18 13 14 13 13 13 13 13 13 13 13 12 13 13 13 13 14 14 14 14 14 13 13 12 12 11 11 9 9 8
18 20 21 30 30 33 36 33 27 29 33 33 34 30 8 11 15 12 13 13 13 13 12 13 11 11 11 11 11 11 11 11 10 10 10 10 9 9 8 7 6 7 6 4
Wind_Direction
320 315 311 318 317 322 325 325 324 326 330 328 327 325 326 324 319 318 318 317 322 324 326 326 327 328 328 329 325 321 317 317 314 310 305 300 294 289 281 271 263 257 250 247
315 309 317 321 327 323 324 324 325 332 342 334 332 328 333 340 338 329 325 326 328 327 328 331 333 334 333 331 329 325 322 318 316 313 306 298 292 287 280 270 263 257 249 244
307 316 320 319 318 321 325 325 329 330 334 338 336 338 349 350 351 350 343 338 338 337 336 337 338 337 336 333 332 326 325 321 318 315 310 300 291 285 277 266 264 255 246 240
313 314 312 312 319 327 325 335 335 335 335 336 348 338 345 349 350 352 347 346 346 346 345 344 343 343 341 338 334 333 331 324 320 317 313 308 291 277 271 261 264 254 248 242
311 312 313 316 322 335 331 334 333 337 339 343 349 344 350 357 354 352 352 354 355 352 348 350 351 351 350 346 344 343 338 332 324 317 319 320 290 273 266 257 261 253 249 248
305 311 315 320 332 333 331 335 343 350 351 347 353 352 353 1 5 4 6 5 356 355 1 4 3 360 357 356 351 349 345 332 325 316 309 313 287 268 264 254 255 253 251 252
302 306 314 328 330 336 340 342 339 343 345 347 358 353 354 6 9 8 9 1 359 3 10 9 6 8 6 1 354 360 355 342 324 312 302 299 293 274 264 257 252 255 251 252
299 302 318 340 335 338 343 352 348 340 344 345 357 359 7 17 21 23 16 8 8 9 10 12 13 12 11 7 4 7 8 7 330 307 300 293 288 267 262 258 253 253 251 252
301 303 337 340 342 341 350 351 2 351 354 353 3 2 7 25 23 26 11 12 11 12 12 14 19 20 19 18 16 17 19 21 107 256 279 283 274 263 252 255 254 251 250 250
303 304 329 336 342 344 353 13 355 360 353 354 359 2 9 19 22 25 7 12 20 20 18 18 22 27 32 33 33 35 46 67 93 157 239 257 264 257 251 252 251 247 247 246
304 310 323 333 342 349 355 358 7 8 6 360 359 6 31 29 28 19 14 22 24 26 30 27 26 37 45 51 60 62 76 141 175 214 261 270 260 249 241 239 243 240 237 242
305 311 316 323 338 353 2 8 14 4 5 7 7 17 51 41 31 21 18 31 37 41 40 38 38 55 59 74 81 89 92 118 153 176 190 207 218 220 224 227 221 218 223 237
306 308 310 327 343 357 9 15 17 16 17 13 17 27 43 38 21 21 27 36 45 52 57 61 69 82 86 90 98 97 107 113 127 144 156 168 182 190 195 198 201 205 213 221
303 298 311 312 326 349 355 4 26 31 21 20 21 283 281 294 296 34 39 43 52 62 70 81 87 90 97 98 99 111 113 117 122 128 143 156 164 171 180 189 193 194 196 196
302 292 304 266 250 209 236 3 58 73 54 36 45 55 270 277 324 52 57 64 70 75 78 86 93 100 103 101 108 111 118 124 125 126 135 145 158 169 175 176 175 166 153 159
310 296 301 279 318 351 29 147 124 136 113 195 219 241 129 83 80 79 79 77 79 85 86 92 96 101 103 113 118 117 116 120 123 122 123 132 141 147 153 141 130 126 107 89
307 300 296 285 311 301 16 68 110 93 105 111 106 109 110 101 98 95 93 92 89 91 94 96 96 99 104 114 115 115 118 123 125 125 127 127 130 136 145 153 130 91 75 64
311 306 297 280 302 346 11 71 110 114 126 146 149 141 126 120 113 109 103 96 94 98 99 101 103 104 105 111 111 115 120 125 123 121 123 126 130 136 143 148 151 144 136 81
320 306 284 292 303 270 332 75 93 101 113 144 155 158 143 125 124 116 109 109 106 105 106 107 108 108 112 112 114 113 115 115 114 117 121 127 131 127 135 143 145 158 160 163
346 301 280 295 301 328 312 326 123 130 104 178 153 153 138 125 119 117 112 111 111 112 111 111 113 115 116 118 120 119 120 119 118 121 126 127 130 130 131 134 143 151 173 176
316 306 277 280 286 260 252 315 79 69 149 211 179 167 140 142 142 122 109 111 113 113 113 114 115 117 120 122 121 120 121 121 124 128 129 130 134 131 134 134 141 142 137 135
309 311 281 286 285 281 309 325 296 238 231 225 214 181 169 169 148 122 121 120 119 119 119 119 117 121 124 127 124 122 121 123 126 125 124 127 133 133 131 125 125 120 114 108
304 313 288 276 279 269 290 262 268 270 239 247 249 224 184 179 167 142 139 138 137 135 132 128 126 124 126 129 130 125 124 120 119 119 121 121 118 116 116 113 113 111 109 108
314 325 287 281 278 252 253 251 249 237 232 239 241 244 182 189 176 171 158 153 151 150 148 139 136 135 134 134 134 134 126 124 119 117 117 116 115 115 115 116 113 108 107 106
303 322 291 273 265 266 263 260 271 279 278 253 238 218 204 192 192 185 182 177 172 166 161 157 156 153 150 139 139 134 127 125 127 127 125 124 120 118 119 120 118 117 123 112
320 314 306 286 287 279 271 279 289 285 287 288 279 265 213 207 202 199 199 193 190 187 179 178 175 170 167 158 154 148 141 138 134 137 138 142 138 137 137 136 140 158 158 144